Weather History for KIWD - September, 2012

Change the Weather History Date:

Thursday, September 20, 2012

  Actual Average Record
Temperature  
Mean Temperature 47 °F -  
Max Temperature 53 °F 61 °F 78 °F (2005)
Min Temperature 41 °F 43 °F 33 °F (2010)
Degree Days  
Heating Degree Days 18    
Moisture  
Dew Point 41 °F    
Average Humidity 75    
Maximum Humidity 87    
Minimum Humidity 54    
Precipitation  
Precipitation 0.16 in - - ()
Sea Level Pressure  
Sea Level Pressure 29.73 in    
Wind  
Wind Speed 13 mph (West)    
Max Wind Speed 18 mph    
Max Gust Speed 26 mph    
Visibility 10 miles    
Events      
Averages and records for this station are not official NWS values.
T = Trace of Precipitation, MM = Missing Value Source: NWS Daily Summary

Daily Weather History Graph

Daily Weather History Graph

Search for Another Location

Airport or City:

Trip Planner

Search our weather history database for the weather conditions in past years. The results will help you decide how hot, cold, wet, or windy it might be!

Date:

Astronomy

Sep. 20, 2012 Rise Set
Actual Time 6:45 AM CDT 7:01 PM CDT
Civil Twilight 6:15 AM CDT 7:31 PM CDT
Nautical Twilight 5:39 AM CDT 8:06 PM CDT
Astronomical Twilight 5:03 AM CDT 8:43 PM CDT
Moon 12:25 PM CDT (9/20) 9:41 PM CDT (9/20)
Length of Visible Light 13h 15m
Length of Day
12h 15m
Waxing Crescent, 27% of the Moon is Illuminated
Sep 20
Waxing Crescent
Sep 22
First Quarter
Sep 29
Full
Oct 8
Last Quarter
Oct 15
New

Hourly Weather History & Observations

Time (CDT) Temp. Windchill Dew Point Humidity Pressure Visibility Wind Dir Wind Speed Gust Speed Precip Events Conditions
12:15 AM 48.2 °F - 42.8 °F 82% 29.64 in 10.0 mi WSW 17.3 mph 25.3 mph N/A   Overcast
12:35 AM 48.2 °F - 42.8 °F 82% 29.64 in 10.0 mi WSW 18.4 mph 23.0 mph 0.01 in   Overcast
12:55 AM 46.4 °F 40.4 °F 42.8 °F 87% 29.64 in 10.0 mi WSW 13.8 mph - 0.01 in   Mostly Cloudy
1:15 AM 46.4 °F 39.8 °F 42.8 °F 87% 29.64 in 10.0 mi WSW 16.1 mph 21.9 mph 0.01 in   Overcast
1:35 AM 46.4 °F 40.7 °F 42.8 °F 87% 29.64 in 10.0 mi WSW 12.7 mph - 0.01 in   Overcast
1:55 AM 46.4 °F 40.4 °F 42.8 °F 87% 29.64 in 10.0 mi WSW 13.8 mph 19.6 mph 0.01 in   Overcast
2:15 AM 48.2 °F - 42.8 °F 82% 29.64 in 10.0 mi WSW 15.0 mph - N/A   Overcast
2:35 AM 48.2 °F - 42.8 °F 82% 29.64 in 10.0 mi West 16.1 mph 20.7 mph N/A   Overcast
2:55 AM 48.2 °F - 42.8 °F 82% 29.64 in 10.0 mi West 13.8 mph 20.7 mph N/A   Overcast
3:15 AM 48.2 °F - 42.8 °F 82% 29.64 in 10.0 mi WSW 15.0 mph 19.6 mph N/A   Overcast
3:35 AM 48.2 °F - 42.8 °F 82% 29.64 in 10.0 mi WSW 16.1 mph 21.9 mph N/A   Overcast
3:55 AM 48.2 °F - 42.8 °F 82% 29.64 in 10.0 mi WSW 15.0 mph - N/A   Mostly Cloudy
4:15 AM 48.2 °F - 42.8 °F 82% 29.64 in 10.0 mi WSW 15.0 mph 20.7 mph N/A   Overcast
4:35 AM 48.2 °F - 42.8 °F 82% 29.65 in 10.0 mi WSW 17.3 mph - N/A   Overcast
5:15 AM 48.2 °F - 42.8 °F 82% 29.66 in 10.0 mi West 15.0 mph 21.9 mph N/A   Overcast
5:35 AM 48.2 °F - 42.8 °F 82% 29.67 in 10.0 mi West 11.5 mph - N/A   Overcast
5:55 AM 48.2 °F - 42.8 °F 82% 29.67 in 10.0 mi WSW 16.1 mph - N/A   Overcast
6:15 AM 48.2 °F - 42.8 °F 82% 29.67 in 10.0 mi WSW 17.3 mph 21.9 mph N/A   Overcast
6:35 AM 48.2 °F - 42.8 °F 82% 29.68 in 10.0 mi West 16.1 mph 24.2 mph N/A   Overcast
6:55 AM 48.2 °F - 42.8 °F 82% 29.69 in 10.0 mi West 12.7 mph - N/A   Overcast
7:15 AM 48.2 °F - 42.8 °F 82% 29.69 in 10.0 mi West 12.7 mph - N/A   Mostly Cloudy
7:35 AM 48.2 °F - 42.8 °F 82% 29.69 in 10.0 mi West 12.7 mph - N/A   Overcast
8:15 AM 48.2 °F - 42.8 °F 82% 29.70 in 10.0 mi WSW 18.4 mph - N/A   Mostly Cloudy
8:35 AM 48.2 °F - 42.8 °F 82% 29.70 in 10.0 mi West 13.8 mph - N/A   Overcast
8:55 AM 48.2 °F - 42.8 °F 82% 29.70 in 10.0 mi West 16.1 mph - N/A   Mostly Cloudy
9:15 AM 48.2 °F - 42.8 °F 82% 29.71 in 10.0 mi West 12.7 mph - N/A   Overcast
9:35 AM 48.2 °F - 42.8 °F 82% 29.71 in 10.0 mi West 15.0 mph - N/A   Overcast
9:55 AM 48.2 °F - 42.8 °F 82% 29.71 in 10.0 mi West 15.0 mph - N/A   Overcast
10:15 AM 50.0 °F - 44.6 °F 82% 29.72 in 10.0 mi West 12.7 mph - N/A   Mostly Cloudy
10:35 AM 51.8 °F - 44.6 °F 76% 29.72 in 10.0 mi West 17.3 mph 21.9 mph N/A   Overcast
10:55 AM 51.8 °F - 42.8 °F 71% 29.72 in 10.0 mi West 13.8 mph - N/A   Mostly Cloudy
11:15 AM 53.6 °F - 42.8 °F 67% 29.72 in 10.0 mi West 13.8 mph 26.5 mph N/A   Overcast
11:35 AM 51.8 °F - 39.2 °F 62% 29.73 in 10.0 mi WNW 15.0 mph 24.2 mph N/A   Overcast
11:55 AM 51.8 °F - 39.2 °F 62% 29.74 in 10.0 mi West 13.8 mph - N/A   Overcast
12:15 PM 51.8 °F - 41.0 °F 67% 29.75 in 10.0 mi West 10.4 mph 20.7 mph N/A   Overcast
12:35 PM 51.8 °F - 42.8 °F 71% 29.75 in 10.0 mi West 12.7 mph - N/A   Mostly Cloudy
12:55 PM 51.8 °F - 42.8 °F 71% 29.75 in 10.0 mi West 13.8 mph - N/A   Overcast
1:15 PM 51.8 °F - 42.8 °F 71% 29.75 in 9.0 mi WNW 6.9 mph - N/A   Mostly Cloudy
1:35 PM 50.0 °F - 42.8 °F 76% 29.76 in 10.0 mi WNW 6.9 mph - 0.04 in   Overcast
1:55 PM 50.0 °F - 44.6 °F 82% 29.76 in 10.0 mi West 12.7 mph - 0.10 in   Overcast
2:15 PM 51.8 °F - 44.6 °F 76% 29.76 in 10.0 mi West 18.4 mph 24.2 mph N/A   Overcast
2:35 PM 48.2 °F - 42.8 °F 82% 29.77 in 10.0 mi West 11.5 mph - 0.04 in   Mostly Cloudy
2:55 PM 50.0 °F - 44.6 °F 82% 29.77 in 10.0 mi WNW 12.7 mph 18.4 mph 0.04 in   Mostly Cloudy
3:15 PM 51.8 °F - 44.6 °F 76% 29.76 in 10.0 mi WNW 16.1 mph 25.3 mph N/A   Mostly Cloudy
3:35 PM 51.8 °F - 42.8 °F 71% 29.77 in 10.0 mi WNW 11.5 mph 25.3 mph N/A   Mostly Cloudy
3:55 PM 51.8 °F - 39.2 °F 62% 29.78 in 10.0 mi West 17.3 mph 25.3 mph N/A   Mostly Cloudy
4:15 PM 51.8 °F - 37.4 °F 58% 29.78 in 10.0 mi West 16.1 mph 24.2 mph N/A   Partly Cloudy
4:35 PM 51.8 °F - 37.4 °F 58% 29.78 in 10.0 mi West 13.8 mph - N/A   Partly Cloudy
4:55 PM 51.8 °F - 37.4 °F 58% 29.79 in 10.0 mi West 10.4 mph 19.6 mph N/A   Partly Cloudy
5:15 PM 51.8 °F - 37.4 °F 58% 29.79 in 10.0 mi WNW 9.2 mph - N/A   Scattered Clouds
5:35 PM 51.8 °F - 35.6 °F 54% 29.79 in 10.0 mi West 6.9 mph - N/A   Partly Cloudy
5:55 PM 51.8 °F - 35.6 °F 54% 29.79 in 10.0 mi WNW 8.1 mph - N/A   Clear
6:35 PM 51.8 °F - 37.4 °F 58% 29.79 in 10.0 mi WSW 4.6 mph - N/A   Clear
6:55 PM 50.0 °F - 39.2 °F 66% 29.79 in 10.0 mi SW 3.5 mph - N/A   Scattered Clouds
7:15 PM 48.2 °F - 37.4 °F 66% 29.79 in 10.0 mi SSW 5.8 mph - N/A   Scattered Clouds
7:35 PM 46.4 °F 43.5 °F 37.4 °F 71% 29.79 in 10.0 mi SW 5.8 mph - N/A   Partly Cloudy
7:55 PM 46.4 °F 42.4 °F 35.6 °F 66% 29.80 in 10.0 mi WSW 8.1 mph - N/A   Clear
8:15 PM 44.6 °F 40.7 °F 35.6 °F 71% 29.80 in 10.0 mi WSW 6.9 mph - N/A   Clear
8:35 PM 44.6 °F 41.4 °F 35.6 °F 71% 29.80 in 10.0 mi WSW 5.8 mph - N/A   Clear
8:55 PM 42.8 °F 38.6 °F 33.8 °F 70% 29.80 in 10.0 mi SW 6.9 mph - N/A   Clear
9:15 PM 44.6 °F 42.2 °F 35.6 °F 71% 29.80 in 10.0 mi WSW 4.6 mph - N/A   Partly Cloudy
9:35 PM 42.8 °F 41.1 °F 35.6 °F 76% 29.79 in 10.0 mi WSW 3.5 mph - N/A   Clear
9:55 PM 44.6 °F 43.1 °F 35.6 °F 71% 29.79 in 10.0 mi SW 3.5 mph - N/A   Clear
10:15 PM 41.0 °F 39.0 °F 33.8 °F 76% 29.79 in 10.0 mi WSW 3.5 mph - N/A   Scattered Clouds
10:35 PM 41.0 °F 39.0 °F 35.6 °F 81% 29.79 in 10.0 mi WSW 3.5 mph - N/A   Mostly Cloudy
10:55 PM 41.0 °F 37.1 °F 35.6 °F 81% 29.79 in 10.0 mi West 5.8 mph - N/A   Overcast
11:15 PM 42.8 °F 39.3 °F 35.6 °F 76% 29.79 in 10.0 mi WSW 5.8 mph - N/A   Overcast
11:35 PM 44.6 °F 40.7 °F 37.4 °F 76% 29.79 in 10.0 mi SW 6.9 mph - N/A   Mostly Cloudy
11:55 PM 44.6 °F 43.1 °F 37.4 °F 76% 29.78 in 10.0 mi WSW 3.5 mph - N/A   Mostly Cloudy